THORAD AGENA D DEB, 5183

Orbit data source: Space-Track

THORAD AGENA D DEB, 5183 is space debris in SSO originally from a launch on Wed, 08 Apr 1970 UTC launched from the Air Force Western Test Range (AFWTR). Debris objects in space refer to the collection of defunct objects orbiting the Earth. Examples of debris include non-operational satellites, rocket bodies, and fragments generated from explosions, collisions, or faulty payload assembly.

Loading next visibility...
Identifier
5183, 1970-025JZ
Orbit
SSO
Country
Flag of USUS
Related business
Manufacturer
Unknown
Mission
Spacecraft
Bus & Motor
Unknown
Mass
Unknown
Launch date (UTC)
1970-04-08 (56 years ago)
Launch vehicle
Unknown
Launch site
Air Force Western Test Range (AFWTR)
Object type
Payload
Rocket body
Debris
Shape & HBR
Unknown shape, 0.1 m
Radar Cross Section
Medium (>0.1 m² and <1 m²)

Expand to show TLE details & history
Last TLE update: 7 hours ago

TLE from 7 hours ago
0 THORAD AGENA D DEB
1 05183U 70025JZ  26255.99942156  .00000279  00000-0  31858-3 0  9992
2 05183 100.0128 150.9763 0034483  56.0009 319.6891 13.79344701816768
Epoch: 2026-09-12T23:59Z
TLE epoch observation values (Epoch: 2026-09-12T23:59:10.022Z)
Latitude
15.17042°
Longitude
156.45461°
Altitude
949.052 km
Speed
7.388 km/s
True Right ascension
09h 52m 59s
True Declination
15° 05' 10"
Sunlit
Object was in daylight at epoch
Visualization orbit readout
Latitude
Unknown
Longitude
Unknown
Altitude
Unknown
Speed
Unknown
Apparent Right ascension
Unknown
Apparent Declination
Unknown
Sunlit
N/A
Visualization observer readout
Local Sidereal Time
23:02:26
Azimuth
Unknown
Elevation
Unknown
Doppler factor
Unknown
Orbital elements
Apogee altitude
988.807 km
Perigee altitude
938.175 km
Semi-major axis
7,341.628 km
Eccentricity
0.00345
Inclination
100.0128°
RAAN
150.9763°
Arg. of periapsis
56.0009°
True anomaly
319.43262°
Mean anomaly
319.6891°
Eccentric anomaly
319.56095°
Mean motion
3.45028 °/min
Orbital period
104.34 mins
BSTAR
0.00031858
Loading maneuver chart data...
Computing Atmospheric mass density...

Documentation

Showing up to 5 results
|